| time (UTC) | temp F | wind direction | speed MPH | gust MPH | rain 1hr in | rain 24hr in | rain mn in | humidity % | barometer mb |
| 20260508034245 | 76 | 295 | 1.0 | 2.0 | 0.00 | 0.00 | 0.00 | 79 | 1014.7 |
| 20260508034034 | 76 | 295 | 1.0 | 2.0 | 0.00 | 0.00 | 0.00 | 79 | 1014.7 |
| 20260508031435 | 77 | 309 | 2.0 | 3.0 | 0.00 | 0.00 | 0.00 | 76 | 1014.7 |
| 20260508030934 | 77 | 302 | 2.0 | 3.0 | 0.00 | 0.00 | 0.00 | 75 | 1014.6 |
| 20260508030434 | 78 | 306 | 2.0 | 3.0 | 0.00 | 0.00 | 0.00 | 75 | 1014.4 |
| 20260508030000 | 78 | 309 | 2.0 | 3.0 | 0.00 | 0.00 | 0.00 | 74 | 1014.5 |
| 20260508025905 | 78 | 309 | 2.0 | 3.0 | 0.00 | 0.00 | 0.00 | 74 | 1014.5 |
| 20260508024437 | 78 | 312 | 2.0 | 3.0 | 0.00 | 0.00 | 0.00 | 71 | 1014.5 |
| 20260508024304 | 78 | 312 | 2.0 | 3.0 | 0.00 | 0.00 | 0.00 | 71 | 1014.5 |
| 20260508023833 | 79 | 311 | 2.0 | 3.0 | 0.00 | 0.00 | 0.00 | 70 | 1014.5 |
| 20260508023734 | 79 | 311 | 2.0 | 3.0 | 0.00 | 0.00 | 0.00 | 70 | 1014.5 |
| 20260508022820 | 79 | 312 | 2.0 | 3.0 | 0.00 | 0.00 | 0.00 | 68 | 1014.5 |
| 20260508022635 | 79 | 312 | 2.0 | 3.0 | 0.00 | 0.00 | 0.00 | 68 | 1014.5 |
| 20260508021035 | 80 | 297 | 2.0 | 7.0 | 0.00 | 0.00 | 0.00 | 65 | 1014.3 |
| 20260508020505 | 80 | 295 | 2.0 | 4.0 | 0.00 | 0.00 | 0.00 | 64 | 1014.3 |
| 20260508015625 | 80 | 298 | 2.0 | 3.0 | 0.00 | 0.00 | 0.00 | 63 | 1014.2 |
| 20260508015505 | 80 | 298 | 2.0 | 3.0 | 0.00 | 0.00 | 0.00 | 63 | 1014.2 |
| 20260508014935 | 81 | 298 | 1.0 | 3.0 | 0.00 | 0.00 | 0.00 | 62 | 1014.1 |
| 20260508014435 | 81 | 294 | 2.0 | 3.0 | 0.00 | 0.00 | 0.00 | 61 | 1014.2 |
| 20260508013404 | 81 | 298 | 2.0 | 4.0 | 0.00 | 0.00 | 0.00 | 60 | 1014.1 |
| 20260508012834 | 81 | 295 | 2.0 | 4.0 | 0.00 | 0.00 | 0.00 | 58 | 1014.1 |
| 20260508012335 | 82 | 294 | 2.0 | 4.0 | 0.00 | 0.00 | 0.00 | 57 | 1014.1 |
| 20260508011804 | 82 | 295 | 2.0 | 6.0 | 0.00 | 0.00 | 0.00 | 56 | 1014.0 |
| 20260508011234 | 82 | 296 | 2.0 | 6.0 | 0.00 | 0.00 | 0.00 | 54 | 1014.0 |
| 20260508010704 | 82 | 294 | 2.0 | 3.0 | 0.00 | 0.00 | 0.00 | 52 | 1013.9 |
| 20260508010205 | 83 | 293 | 2.0 | 3.0 | 0.00 | 0.00 | 0.00 | 51 | 1013.8 |
| 20260508005704 | 83 | 297 | 1.0 | 3.0 | 0.00 | 0.00 | 0.00 | 50 | 1013.8 |
| 20260508004634 | 83 | 290 | 2.0 | 3.0 | 0.00 | 0.00 | 0.00 | 47 | 1013.9 |
| 20260508004149 | 84 | 293 | 2.0 | 6.0 | 0.00 | 0.00 | 0.00 | 46 | 1013.9 |
| 20260508004104 | 84 | 293 | 2.0 | 6.0 | 0.00 | 0.00 | 0.00 | 46 | 1013.9 |
| 20260508003605 | 84 | 296 | 2.0 | 6.0 | 0.00 | 0.00 | 0.00 | 45 | 1013.9 |
| 20260508003105 | 84 | 296 | 2.0 | 4.0 | 0.00 | 0.00 | 0.00 | 44 | 1013.9 |
| 20260508002605 | 84 | 292 | 2.0 | 4.0 | 0.00 | 0.00 | 0.00 | 44 | 1013.9 |
| 20260508002104 | 84 | 289 | 2.0 | 4.0 | 0.00 | 0.00 | 0.00 | 42 | 1013.9 |
| 20260508001034 | 85 | 295 | 2.0 | 4.0 | 0.00 | 0.00 | 0.00 | 41 | 1013.8 |
| 20260508000035 | 86 | 297 | 2.0 | 4.0 | 0.00 | 0.00 | 0.00 | 41 | 1013.6 |
| 20260507235505 | 86 | 291 | 2.0 | 5.0 | 0.00 | 0.00 | 0.00 | 40 | 1013.6 |
| 20260507234934 | 87 | 290 | 2.0 | 4.0 | 0.00 | 0.00 | 0.00 | 40 | 1013.6 |
| 20260507234404 | 87 | 297 | 2.0 | 6.0 | 0.00 | 0.00 | 0.00 | 39 | 1013.6 |
| 20260507233905 | 87 | 299 | 2.0 | 7.0 | 0.00 | 0.00 | 0.00 | 38 | 1013.5 |
| 20260507233404 | 88 | 304 | 2.0 | 7.0 | 0.00 | 0.00 | 0.00 | 38 | 1013.6 |
| 20260507232904 | 88 | 307 | 2.0 | 4.0 | 0.00 | 0.00 | 0.00 | 38 | 1013.6 |
| 20260507231305 | 89 | 289 | 3.0 | 8.0 | 0.00 | 0.00 | 0.00 | 36 | 1013.4 |
| 20260507230805 | 89 | 285 | 3.0 | 9.0 | 0.00 | 0.00 | 0.00 | 35 | 1013.4 |
| 20260507230235 | 90 | 284 | 3.0 | 8.0 | 0.00 | 0.00 | 0.00 | 34 | 1013.4 |
| 20260507225735 | 90 | 284 | 3.0 | 6.0 | 0.00 | 0.00 | 0.00 | 36 | 1013.4 |
| 20260507225204 | 90 | 285 | 3.0 | 8.0 | 0.00 | 0.00 | 0.00 | 38 | 1013.4 |
| 20260507224635 | 90 | 272 | 4.0 | 9.0 | 0.00 | 0.00 | 0.00 | 39 | 1013.4 |
| 20260507224134 | 90 | 275 | 4.0 | 9.0 | 0.00 | 0.00 | 0.00 | 40 | 1013.3 |
| 20260507223634 | 90 | 286 | 4.0 | 9.0 | 0.00 | 0.00 | 0.00 | 41 | 1013.2 |
| 20260507223104 | 90 | 283 | 4.0 | 9.0 | 0.00 | 0.00 | 0.00 | 41 | 1013.2 |
| 20260507222534 | 90 | 286 | 2.0 | 9.0 | 0.00 | 0.00 | 0.00 | 42 | 1013.1 |
| 20260507221504 | 91 | 265 | 3.0 | 8.0 | 0.00 | 0.00 | 0.00 | 43 | 1013.0 |
| 20260507220935 | 91 | 270 | 2.0 | 6.0 | 0.00 | 0.00 | 0.00 | 42 | 1013.0 |
| 20260507220434 | 91 | 270 | 2.0 | 7.0 | 0.00 | 0.00 | 0.00 | 42 | 1013.1 |
| 20260507215934 | 91 | 280 | 3.0 | 8.0 | 0.00 | 0.00 | 0.00 | 41 | 1013.1 |
| 20260507215435 | 91 | 294 | 2.0 | 8.0 | 0.00 | 0.00 | 0.00 | 41 | 1013.1 |
| 20260507214904 | 91 | 308 | 2.0 | 8.0 | 0.00 | 0.00 | 0.00 | 40 | 1013.1 |
| 20260507214404 | 91 | 291 | 4.0 | 8.0 | 0.00 | 0.00 | 0.00 | 39 | 1013.1 |
| 20260507213834 | 92 | 280 | 4.0 | 8.0 | 0.00 | 0.00 | 0.00 | 38 | 1013.2 |
| 20260507213334 | 92 | 293 | 2.0 | 7.0 | 0.00 | 0.00 | 0.00 | 37 | 1013.1 |
| 20260507211804 | 92 | 322 | 2.0 | 6.0 | 0.00 | 0.00 | 0.00 | 35 | 1013.2 |
| 20260507211305 | 93 | 316 | 2.0 | 6.0 | 0.00 | 0.00 | 0.00 | 34 | 1013.2 |
| 20260507210735 | 93 | 323 | 2.0 | 5.0 | 0.00 | 0.00 | 0.00 | 34 | 1013.2 |
| 20260507210204 | 93 | 314 | 3.0 | 4.0 | 0.00 | 0.00 | 0.00 | 33 | 1013.3 |
| 20260507205704 | 93 | 313 | 2.0 | 4.0 | 0.00 | 0.00 | 0.00 | 32 | 1013.3 |
| 20260507205204 | 93 | 321 | 3.0 | 6.0 | 0.00 | 0.00 | 0.00 | 31 | 1013.3 |
| 20260507204634 | 93 | 322 | 3.0 | 7.0 | 0.00 | 0.00 | 0.00 | 30 | 1013.4 |
| 20260507204134 | 93 | 305 | 3.0 | 7.0 | 0.00 | 0.00 | 0.00 | 30 | 1013.5 |
| 20260507203134 | 94 | 330 | 3.0 | 6.0 | 0.00 | 0.00 | 0.00 | 32 | 1013.4 |
| 20260507202604 | 94 | 326 | 3.0 | 6.0 | 0.00 | 0.00 | 0.00 | 32 | 1013.4 |
| 20260507202104 | 94 | 301 | 3.0 | 9.0 | 0.00 | 0.00 | 0.00 | 33 | 1013.5 |
| 20260507201104 | 95 | 287 | 3.0 | 8.0 | 0.00 | 0.00 | 0.00 | 37 | 1013.5 |
| 20260507200534 | 94 | 293 | 3.0 | 9.0 | 0.00 | 0.00 | 0.00 | 39 | 1013.6 |
| 20260507195435 | 95 | 285 | 3.0 | 9.0 | 0.00 | 0.00 | 0.00 | 39 | 1013.7 |
| 20260507194904 | 95 | 283 | 3.0 | 9.0 | 0.00 | 0.00 | 0.00 | 38 | 1013.8 |
| 20260507194334 | 95 | 285 | 3.0 | 8.0 | 0.00 | 0.00 | 0.00 | 36 | 1013.8 |
| 20260507193834 | 94 | 274 | 2.0 | 6.0 | 0.00 | 0.00 | 0.00 | 40 | 1013.8 |
| 20260507193512 | 93 | 247 | 3.0 | 8.0 | 0.00 | 0.00 | 0.00 | 44 | 1013.9 |
| 20260507193304 | 93 | 247 | 3.0 | 8.0 | 0.00 | 0.00 | 0.00 | 44 | 1013.9 |
| 20260507192804 | 93 | 265 | 3.0 | 9.0 | 0.00 | 0.00 | 0.00 | 42 | 1013.9 |
| 20260507192234 | 94 | 273 | 3.0 | 9.0 | 0.00 | 0.00 | 0.00 | 44 | 1013.8 |
| 20260507191204 | 94 | 250 | 3.0 | 9.0 | 0.00 | 0.00 | 0.00 | 44 | 1014.1 |
| 20260507190134 | 93 | 282 | 3.0 | 8.0 | 0.00 | 0.00 | 0.00 | 47 | 1014.3 |
| 20260507185634 | 93 | 250 | 4.0 | 14.0 | 0.00 | 0.00 | 0.00 | 46 | 1014.5 |
| 20260507185134 | 93 | 232 | 5.0 | 14.0 | 0.00 | 0.00 | 0.00 | 48 | 1014.5 |
| 20260507184604 | 93 | 219 | 4.0 | 11.0 | 0.00 | 0.00 | 0.00 | 48 | 1014.6 |
| 20260507184034 | 93 | 232 | 3.0 | 10.0 | 0.00 | 0.00 | 0.00 | 50 | 1014.7 |
| 20260507183534 | 92 | 244 | 4.0 | 13.0 | 0.00 | 0.00 | 0.00 | 50 | 1014.8 |
| 20260507182434 | 92 | 205 | 3.0 | 11.0 | 0.00 | 0.00 | 0.00 | 51 | 1014.9 |
| 20260507181904 | 91 | 232 | 3.0 | 11.0 | 0.00 | 0.00 | 0.00 | 52 | 1015.0 |
| 20260507181334 | 92 | 248 | 3.0 | 11.0 | 0.00 | 0.00 | 0.00 | 52 | 1015.2 |
| 20260507180234 | 91 | 226 | 4.0 | 14.0 | 0.00 | 0.00 | 0.00 | 53 | 1015.3 |
| 20260507175734 | 91 | 235 | 4.0 | 10.0 | 0.00 | 0.00 | 0.00 | 52 | 1015.3 |
| 20260507175205 | 91 | 244 | 5.0 | 10.0 | 0.00 | 0.00 | 0.00 | 53 | 1015.5 |
| 20260507174204 | 90 | 238 | 5.0 | 13.0 | 0.00 | 0.00 | 0.00 | 55 | 1015.5 |
| 20260507173704 | 90 | 244 | 4.0 | 12.0 | 0.00 | 0.00 | 0.00 | 55 | 1015.5 |
| 20260507173135 | 90 | 258 | 5.0 | 12.0 | 0.00 | 0.00 | 0.00 | 57 | 1015.7 |
| 20260507172635 | 90 | 239 | 4.0 | 12.0 | 0.00 | 0.00 | 0.00 | 56 | 1015.7 |
| 20260507172134 | 90 | 226 | 4.0 | 12.0 | 0.00 | 0.00 | 0.00 | 59 | 1015.7 |
| 20260507171604 | 90 | 232 | 4.0 | 12.0 | 0.00 | 0.00 | 0.00 | 59 | 1015.5 |
| 20260507171034 | 90 | 232 | 4.0 | 12.0 | 0.00 | 0.00 | 0.00 | 60 | 1015.7 |
| 20260507170504 | 89 | 231 | 4.0 | 13.0 | 0.00 | 0.00 | 0.00 | 59 | 1015.7 |
| 20260507165934 | 90 | 235 | 4.0 | 11.0 | 0.00 | 0.00 | 0.00 | 58 | 1015.8 |
| 20260507165434 | 90 | 241 | 4.0 | 11.0 | 0.00 | 0.00 | 0.00 | 58 | 1015.9 |
| 20260507164904 | 89 | 242 | 5.0 | 11.0 | 0.00 | 0.00 | 0.00 | 60 | 1015.9 |
| 20260507164404 | 89 | 229 | 5.0 | 14.0 | 0.00 | 0.00 | 0.00 | 60 | 1015.9 |
| 20260507163834 | 89 | 217 | 5.0 | 13.0 | 0.00 | 0.00 | 0.00 | 60 | 1016.0 |
| 20260507162307 | 88 | 232 | 4.0 | 12.0 | 0.00 | 0.00 | 0.00 | 59 | 1016.1 |
| 20260507160734 | 88 | 235 | 4.0 | 11.0 | 0.00 | 0.00 | 0.00 | 60 | 1016.3 |
| 20260507160206 | 88 | 235 | 4.0 | 11.0 | 0.00 | 0.00 | 0.00 | 61 | 1016.5 |
| 20260507155704 | 87 | 232 | 4.0 | 11.0 | 0.00 | 0.00 | 0.00 | 61 | 1016.4 |
| 20260507155134 | 87 | 207 | 5.0 | 12.0 | 0.00 | 0.00 | 0.00 | 60 | 1016.5 |
| 20260507154604 | 86 | 218 | 4.0 | 12.0 | 0.00 | 0.00 | 0.00 | 61 | 1016.5 |
| 20260507153604 | 86 | 245 | 5.0 | 11.0 | 0.00 | 0.00 | 0.00 | 62 | 1016.7 |
| 20260507153034 | 86 | 245 | 4.0 | 10.0 | 0.00 | 0.00 | 0.00 | 60 | 1016.7 |
| 20260507151934 | 86 | 224 | 4.0 | 9.0 | 0.00 | 0.00 | 0.00 | 60 | 1016.7 |
| 20260507151434 | 86 | 212 | 3.0 | 10.0 | 0.00 | 0.00 | 0.00 | 60 | 1016.7 |
| 20260507150934 | 86 | 240 | 4.0 | 10.0 | 0.00 | 0.00 | 0.00 | 60 | 1016.6 |
| 20260507144834 | 84 | 249 | 6.0 | 19.0 | 0.00 | 0.00 | 0.00 | 63 | 1016.7 |
| 20260507142704 | 83 | 235 | 5.0 | 13.0 | 0.00 | 0.00 | 0.00 | 65 | 1016.6 |
| 20260507142134 | 82 | 235 | 5.0 | 13.0 | 0.00 | 0.00 | 0.00 | 67 | 1016.6 |
| 20260507141634 | 82 | 234 | 5.0 | 11.0 | 0.00 | 0.00 | 0.00 | 68 | 1016.6 |
| 20260507140104 | 81 | 216 | 4.0 | 13.0 | 0.00 | 0.00 | 0.00 | 67 | 1016.7 |
| 20260507135604 | 81 | 227 | 3.0 | 8.0 | 0.00 | 0.00 | 0.00 | 68 | 1016.7 |
| 20260507135034 | 80 | 217 | 3.0 | 6.0 | 0.00 | 0.00 | 0.00 | 73 | 1016.8 |
| 20260507134109 | 79 | 205 | 3.0 | 9.0 | 0.00 | 0.00 | 0.00 | 75 | 1016.8 |
| 20260507133934 | 79 | 205 | 3.0 | 9.0 | 0.00 | 0.00 | 0.00 | 75 | 1016.8 |
| 20260507133434 | 79 | 212 | 3.0 | 9.0 | 0.00 | 0.00 | 0.00 | 74 | 1016.8 |
| 20260507131905 | 77 | 194 | 3.0 | 7.0 | 0.00 | 0.00 | 0.00 | 75 | 1016.6 |
| 20260507131334 | 77 | 193 | 3.0 | 7.0 | 0.00 | 0.00 | 0.00 | 76 | 1016.5 |
| 20260507130834 | 77 | 203 | 3.0 | 7.0 | 0.00 | 0.00 | 0.00 | 78 | 1016.5 |
| 20260507125204 | 76 | 194 | 2.0 | 6.0 | 0.00 | 0.00 | 0.00 | 80 | 1016.3 |
| 20260507124637 | 75 | 181 | 3.0 | 7.0 | 0.00 | 0.00 | 0.00 | 81 | 1016.4 |
| 20260507124134 | 75 | 181 | 3.0 | 7.0 | 0.00 | 0.00 | 0.00 | 82 | 1016.4 |
| 20260507120934 | 72 | 182 | 2.0 | 6.0 | 0.00 | 0.00 | 0.00 | 87 | 1016.3 |
| 20260507120434 | 72 | 190 | 2.0 | 5.0 | 0.00 | 0.00 | 0.00 | 88 | 1016.4 |
| 20260507114906 | 72 | 188 | 2.0 | 6.0 | 0.00 | 0.00 | 0.00 | 88 | 1016.1 |
| 20260507114334 | 72 | 184 | 2.0 | 5.0 | 0.00 | 0.00 | 0.00 | 88 | 1016.2 |
| 20260507113834 | 72 | 182 | 1.0 | 5.0 | 0.00 | 0.00 | 0.00 | 88 | 1016.1 |
| 20260507112204 | 72 | 182 | 2.0 | 5.0 | 0.00 | 0.00 | 0.00 | 88 | 1016.1 |
| 20260507111705 | 72 | 186 | 1.0 | 4.0 | 0.00 | 0.00 | 0.00 | 88 | 1016.0 |
| 20260507111134 | 72 | 189 | 1.0 | 4.0 | 0.00 | 0.00 | 0.00 | 88 | 1015.8 |
| 20260507110634 | 72 | 187 | 1.0 | 4.0 | 0.00 | 0.00 | 0.00 | 87 | 1015.9 |
| 20260507110134 | 72 | 181 | 1.0 | 6.0 | 0.00 | 0.00 | 0.00 | 87 | 1015.7 |
| 20260507105635 | 72 | 181 | 2.0 | 6.0 | 0.00 | 0.00 | 0.00 | 87 | 1016.0 |
| 20260507105104 | 72 | 181 | 2.0 | 6.0 | 0.00 | 0.00 | 0.00 | 88 | 1015.9 |
| 20260507104034 | 71 | 180 | 1.0 | 5.0 | 0.00 | 0.00 | 0.00 | 90 | 1015.7 |
| 20260507103534 | 70 | 178 | 1.0 | 3.0 | 0.00 | 0.00 | 0.00 | 91 | 1015.8 |
| 20260507103034 | 70 | 169 | 0.0 | 3.0 | 0.00 | 0.00 | 0.00 | 91 | 1015.6 |
| 20260507101934 | 69 | 215 | 0.0 | 1.0 | 0.00 | 0.00 | 0.00 | 91 | 1015.7 |
| 20260507101404 | 70 | 215 | 0.0 | 1.0 | 0.00 | 0.00 | 0.00 | 90 | 1015.5 |
| 20260507100456 | 70 | 210 | 0.0 | 2.0 | 0.00 | 0.00 | 0.00 | 91 | 1015.4 |
| 20260507100335 | 70 | 213 | 0.0 | 2.0 | 0.00 | 0.00 | 0.00 | 90 | 1015.5 |
| 20260507095806 | 70 | 210 | 0.0 | 2.0 | 0.00 | 0.00 | 0.00 | 91 | 1015.4 |
| 20260507094704 | 70 | 191 | 0.0 | 1.0 | 0.00 | 0.00 | 0.00 | 90 | 1015.2 |
| 20260507094204 | 70 | 221 | 0.0 | 1.0 | 0.00 | 0.00 | 0.00 | 91 | 1015.1 |
| 20260507093834 | 70 | 246 | 0.0 | 1.0 | 0.00 | 0.00 | 0.00 | 93 | 1015.0 |
| 20260507093704 | 70 | 227 | 0.0 | 1.0 | 0.00 | 0.00 | 0.00 | 92 | 1015.0 |
| 20260507093207 | 70 | 246 | 0.0 | 1.0 | 0.00 | 0.00 | 0.00 | 93 | 1015.0 |
| 20260507092634 | 69 | 246 | 0.0 | 1.0 | 0.00 | 0.00 | 0.00 | 93 | 1014.9 |
| 20260507092104 | 70 | 246 | 0.0 | 1.0 | 0.00 | 0.00 | 0.00 | 93 | 1015.0 |
| 20260507090743 | 70 | 0 | 0.0 | 0.0 | 0.00 | 0.00 | 0.00 | 92 | 1015.2 |
| 20260507090534 | 70 | 0 | 0.0 | 0.0 | 0.00 | 0.00 | 0.00 | 92 | 1015.2 |
| 20260507084404 | 71 | 0 | 0.0 | 0.0 | 0.00 | 0.00 | 0.00 | 90 | 1015.2 |
| 20260507083404 | 72 | 246 | 0.0 | 1.0 | 0.00 | 0.00 | 0.00 | 90 | 1015.1 |
| 20260507082834 | 72 | 246 | 0.0 | 1.0 | 0.00 | 0.00 | 0.00 | 89 | 1014.9 |
| 20260507082306 | 72 | 246 | 0.0 | 1.0 | 0.00 | 0.00 | 0.00 | 89 | 1015.0 |
| 20260507081234 | 72 | 250 | 1.0 | 3.0 | 0.00 | 0.00 | 0.00 | 88 | 1014.8 |
| 20260507080734 | 72 | 248 | 1.0 | 4.0 | 0.00 | 0.00 | 0.00 | 88 | 1014.9 |
| 20260507075704 | 72 | 242 | 1.0 | 4.0 | 0.00 | 0.00 | 0.00 | 88 | 1014.9 |
| 20260507075204 | 72 | 238 | 1.0 | 3.0 | 0.00 | 0.00 | 0.00 | 88 | 1014.8 |
| 20260507074634 | 72 | 221 | 1.0 | 2.0 | 0.00 | 0.00 | 0.00 | 87 | 1014.8 |
| 20260507074134 | 73 | 227 | 1.0 | 2.0 | 0.00 | 0.00 | 0.00 | 87 | 1014.9 |
| 20260507073634 | 73 | 243 | 1.0 | 2.0 | 0.00 | 0.00 | 0.00 | 86 | 1015.0 |
| 20260507073134 | 73 | 243 | 0.0 | 2.0 | 0.00 | 0.00 | 0.00 | 86 | 1015.2 |
| 20260507072634 | 73 | 244 | 1.0 | 3.0 | 0.00 | 0.00 | 0.00 | 86 | 1015.1 |
| 20260507072134 | 73 | 242 | 2.0 | 4.0 | 0.00 | 0.00 | 0.00 | 86 | 1015.2 |
| 20260507071634 | 74 | 240 | 2.0 | 4.0 | 0.00 | 0.00 | 0.00 | 85 | 1015.2 |
| 20260507070634 | 74 | 239 | 2.0 | 4.0 | 0.00 | 0.00 | 0.00 | 85 | 1015.1 |
| 20260507065034 | 74 | 237 | 1.0 | 3.0 | 0.00 | 0.00 | 0.00 | 84 | 1015.2 |
| 20260507064534 | 74 | 231 | 1.0 | 2.0 | 0.00 | 0.00 | 0.00 | 84 | 1015.2 |
| 20260507063504 | 74 | 222 | 1.0 | 3.0 | 0.00 | 0.00 | 0.00 | 83 | 1015.3 |
| 20260507062434 | 74 | 242 | 2.0 | 3.0 | 0.00 | 0.00 | 0.00 | 82 | 1015.5 |
| 20260507061935 | 74 | 237 | 2.0 | 4.0 | 0.00 | 0.00 | 0.00 | 82 | 1015.4 |
| 20260507061404 | 74 | 229 | 1.0 | 4.0 | 0.00 | 0.00 | 0.00 | 81 | 1015.5 |
| 20260507060834 | 74 | 234 | 1.0 | 3.0 | 0.00 | 0.00 | 0.00 | 80 | 1015.8 |
| 20260507060334 | 74 | 241 | 2.0 | 6.0 | 0.00 | 0.00 | 0.00 | 79 | 1015.7 |
| 20260507055334 | 74 | 236 | 2.0 | 4.0 | 0.00 | 0.00 | 0.00 | 77 | 1015.6 |
| 20260507055005 | 75 | 206 | 1.0 | 3.0 | 0.00 | 0.00 | 0.00 | 76 | 1015.7 |
| 20260507054808 | 75 | 206 | 1.0 | 3.0 | 0.00 | 0.00 | 0.00 | 76 | 1015.7 |
| 20260507052734 | 75 | 196 | 1.0 | 3.0 | 0.00 | 0.00 | 0.00 | 74 | 1015.9 |
| 20260507052204 | 76 | 198 | 1.0 | 4.0 | 0.00 | 0.00 | 0.00 | 73 | 1016.0 |
| 20260507050604 | 76 | 202 | 1.0 | 3.0 | 0.00 | 0.00 | 0.00 | 75 | 1016.2 |
| 20260507045035 | 75 | 226 | 0.0 | 3.0 | 0.00 | 0.00 | 0.00 | 79 | 1016.4 |
| 20260507042434 | 75 | 221 | 1.0 | 1.0 | 0.00 | 0.00 | 0.00 | 82 | 1016.5 |
| 20260507041904 | 76 | 221 | 0.0 | 1.0 | 0.00 | 0.00 | 0.00 | 82 | 1016.5 |
| 20260507040334 | 77 | 216 | 0.0 | 1.0 | 0.00 | 0.00 | 0.00 | 81 | 1016.4 |